GW1009 Weather Reports


time (UTC)temp
C
wind
direction
speed
KPH
gust
KPH
rain 1hr
cm
rain 24hr
cm
rain mn
cm
humidity
%
barometer
mb
20260509055527 2 109 4.8 6.4 0.00 0.15 0.00 82 1011.0
20260509055027 2 109 3.2 6.4 0.00 0.15 0.00 81 1011.0
20260509054523 2 108 3.2 6.4 0.00 0.15 0.00 81 1011.1
20260509054024 2 108 3.2 6.4 0.00 0.15 0.00 81 1011.0
20260509053522 2 114 3.2 6.4 0.00 0.15 0.00 80 1011.1
20260509053030 2 112 3.2 4.8 0.00 0.15 0.00 80 1011.2
20260509052518 2 112 3.2 4.8 0.00 0.15 0.00 80 1011.3
20260509052018 2 111 3.2 6.4 0.00 0.15 0.00 79 1011.3
20260509051519 2 111 3.2 6.4 0.00 0.15 0.00 79 1011.3
20260509051018 2 111 3.2 6.4 0.00 0.15 0.00 79 1011.3
20260509050517 2 111 3.2 6.4 0.00 0.15 0.00 77 1011.4
20260509050016 3 109 3.2 6.4 0.00 0.15 0.00 76 1011.4
20260509045520 3 105 3.2 6.4 0.00 0.15 0.00 75 1011.4
20260509045016 3 105 4.8 6.4 0.00 0.15 0.00 74 1011.5
20260509044516 3 105 3.2 6.4 0.00 0.15 0.00 73 1011.5
20260509044020 3 106 4.8 6.4 0.00 0.15 0.00 72 1011.5
20260509043516 3 103 3.2 6.4 0.00 0.15 0.00 72 1011.5
20260509043035 3 113 3.2 4.8 0.00 0.15 0.00 71 1011.6
20260509042515 4 124 3.2 4.8 0.00 0.15 0.00 68 1011.6
20260509042013 4 161 0.0 4.8 0.00 0.15 0.00 69 1011.5
20260509041515 3 141 1.6 4.8 0.00 0.15 0.00 71 1011.5
20260509041011 3 113 1.6 4.8 0.00 0.15 0.00 76 1011.5
20260509040508 2 112 1.6 6.4 0.00 0.15 0.00 78 1011.5
20260509040009 2 112 1.6 6.4 0.00 0.15 0.00 79 1011.4
20260509035507 2 113 4.8 6.4 0.00 0.15 0.15 78 1011.4
20260509035007 2 109 1.6 4.8 0.00 0.15 0.15 78 1011.3
20260509034507 2 109 0.0 4.8 0.00 0.15 0.15 78 1011.3
20260509034007 2 109 3.2 4.8 0.00 0.15 0.15 78 1011.3
20260509033510 2 102 3.2 4.8 0.00 0.15 0.15 78 1011.3
20260509033007 2 80 3.2 4.8 0.00 0.15 0.15 78 1011.2
20260509032507 2 78 1.6 4.8 0.00 0.15 0.15 77 1011.3
20260509032006 2 78 3.2 4.8 0.00 0.15 0.15 77 1011.4
20260509031508 2 61 3.2 4.8 0.00 0.15 0.15 77 1011.5
20260509031007 2 61 1.6 4.8 0.00 0.15 0.15 76 1011.4
20260509030506 2 61 3.2 4.8 0.00 0.15 0.15 76 1011.4
20260509030005 2 59 3.2 4.8 0.00 0.15 0.15 76 1011.5
20260509025505 2 55 3.2 4.8 0.00 0.15 0.15 76 1011.5
20260509025009 2 50 1.6 4.8 0.00 0.15 0.15 75 1011.6
20260509024506 2 286 1.6 4.8 0.00 0.15 0.15 74 1011.6
20260509024005 3 285 0.0 3.2 0.00 0.15 0.15 73 1011.6
20260509023505 3 285 0.0 0.0 0.00 0.15 0.15 71 1011.7
20260509023005 3 285 0.0 1.6 0.00 0.15 0.15 71 1011.7
20260509022504 3 285 0.0 1.6 0.00 0.15 0.15 70 1011.7
20260509022006 3 285 0.0 0.0 0.00 0.15 0.15 70 1011.6
20260509021504 3 285 0.0 1.6 0.00 0.15 0.15 71 1011.7
20260509021004 3 285 0.0 1.6 0.00 0.15 0.15 71 1011.8
20260509020503 3 285 0.0 3.2 0.00 0.15 0.15 70 1011.7
20260509020003 3 301 0.0 3.2 0.00 0.15 0.15 70 1011.6
20260509015503 3 301 0.0 3.2 0.00 0.15 0.15 71 1011.6
20260509015004 3 301 0.0 3.2 0.00 0.15 0.15 70 1011.4
20260509014507 3 301 0.0 3.2 0.00 0.15 0.15 70 1011.4
20260509014102 3 301 0.0 4.8 0.00 0.15 0.15 70 1011.4
20260509013501 3 301 1.6 4.8 0.00 0.15 0.15 70 1011.2
20260509013002 3 299 0.0 0.0 0.00 0.15 0.15 69 1011.2
20260509012502 3 300 0.0 0.0 0.00 0.15 0.15 68 1011.0
20260509012001 3 300 0.0 0.0 0.00 0.15 0.15 68 1011.1
20260509011501 3 300 0.0 0.0 0.00 0.15 0.15 67 1011.1
20260509011002 4 300 0.0 0.0 0.00 0.15 0.15 66 1010.9
20260509010500 4 300 0.0 1.6 0.00 0.15 0.15 65 1010.9
20260509005600 4 300 0.0 3.2 0.00 0.15 0.15 63 1010.8
20260509005104 5 300 0.0 1.6 0.00 0.15 0.15 60 1010.6
20260509004603 5 300 0.0 3.2 0.00 0.15 0.15 59 1010.4
20260509004100 5 300 0.0 3.2 0.00 0.15 0.15 62 1010.3
20260509003600 5 300 1.6 3.2 0.00 0.15 0.15 64 1010.3
20260509003103 5 300 1.6 3.2 0.00 0.15 0.15 64 1010.3
20260509002603 5 300 0.0 3.2 0.00 0.15 0.15 60 1010.3
20260509002100 6 360 1.6 3.2 0.00 0.15 0.15 58 1010.1
20260509001559 6 300 1.6 4.8 0.00 0.15 0.15 58 1010.0
20260509001058 6 300 1.6 4.8 0.00 0.15 0.15 59 1010.1
20260509000558 7 300 0.0 0.0 0.00 0.15 0.15 58 1010.1
20260508235559 7 300 0.0 4.8 0.00 0.15 0.15 50 1010.0
20260508235059 7 300 1.6 6.4 0.00 0.15 0.15 48 1010.0
20260508234604 7 304 1.6 6.4 0.00 0.15 0.15 48 1010.0
20260508234058 7 302 1.6 6.4 0.00 0.15 0.15 49 1009.9
20260508233558 7 293 1.6 4.8 0.00 0.15 0.15 50 1009.9
20260508233108 8 292 1.6 4.8 0.00 0.15 0.15 49 1009.8
20260508232556 8 305 1.6 6.4 0.00 0.15 0.15 47 1009.8
20260508232057 8 307 3.2 14.5 0.00 0.15 0.15 47 1009.9
20260508231558 8 306 8.0 14.5 0.00 0.15 0.15 48 1009.9
20260508231056 8 301 6.4 16.1 0.00 0.15 0.15 47 1009.9
20260508230559 8 297 8.0 16.1 0.00 0.15 0.15 45 1009.9
20260508230056 8 343 6.4 12.9 0.00 0.15 0.15 46 1009.9
20260508225556 8 319 4.8 14.5 0.00 0.15 0.15 44 1009.9
20260508225056 8 306 6.4 22.5 0.00 0.15 0.15 46 1009.9
20260508224557 8 315 6.4 22.5 0.00 0.15 0.15 45 1009.9
20260508224055 8 297 9.7 22.5 0.00 0.15 0.15 46 1010.0
20260508223555 8 320 14.5 24.1 0.00 0.15 0.15 45 1010.0
20260508223055 9 294 11.3 24.1 0.00 0.15 0.15 43 1009.9
20260508222554 8 261 4.8 19.3 0.00 0.15 0.15 43 1010.0
20260508222054 8 304 8.0 20.9 0.00 0.15 0.15 43 1010.0
20260508221556 8 289 16.1 20.9 0.00 0.15 0.15 42 1010.0
20260508221054 8 293 6.4 16.1 0.00 0.15 0.15 46 1010.1
20260508220556 8 319 9.7 20.9 0.00 0.15 0.15 46 1010.1
20260508220055 8 325 16.1 22.5 0.00 0.15 0.15 45 1010.0
20260508215553 8 294 11.3 24.1 0.00 0.15 0.15 44 1010.1
20260508215053 8 256 3.2 24.1 0.00 0.15 0.15 46 1010.1
20260508214553 9 313 11.3 20.9 0.00 0.15 0.15 45 1010.1
20260508214052 10 306 8.0 19.3 0.00 0.15 0.15 45 1010.1
20260508213552 10 291 3.2 14.5 0.00 0.15 0.15 45 1010.2
20260508213055 10 294 3.2 16.1 0.00 0.15 0.15 44 1010.2
20260508212551 9 273 6.4 24.1 0.00 0.15 0.15 48 1010.3
20260508212050 9 228 9.7 24.1 0.00 0.15 0.15 46 1010.2
20260508211552 9 285 16.1 24.1 0.00 0.15 0.15 44 1010.1
20260508211050 9 301 4.8 20.9 0.00 0.15 0.15 46 1010.1
20260508210552 9 304 11.3 22.5 0.00 0.15 0.15 44 1010.1
20260508210051 9 305 12.9 24.1 0.00 0.15 0.15 45 1010.1
20260508205549 9 301 6.4 24.1 0.00 0.15 0.15 50 1010.1
20260508205049 9 298 8.0 19.3 0.00 0.15 0.15 50 1010.1
20260508204549 9 290 11.3 17.7 0.00 0.15 0.15 48 1010.1
20260508204050 9 265 4.8 27.4 0.00 0.15 0.15 50 1010.1
20260508203546 9 301 9.7 27.4 0.00 0.15 0.15 53 1010.0
20260508203045 8 274 4.8 27.4 0.00 0.15 0.15 57 1010.0
20260508202545 8 304 16.1 27.4 0.00 0.15 0.15 53 1010.1
20260508202041 7 299 9.7 19.3 0.00 0.15 0.15 58 1010.2
20260508201541 7 290 9.7 16.1 0.03 0.15 0.15 59 1010.2
20260508201041 7 305 6.4 19.3 0.03 0.15 0.15 58 1010.3
20260508200540 7 313 9.7 19.3 0.03 0.15 0.15 59 1010.3
20260508200140 7 304 6.4 17.7 0.03 0.15 0.15 64 1010.3
20260508195539 7 321 8.0 17.7 0.03 0.15 0.15 65 1010.3
20260508195039 7 300 11.3 17.7 0.03 0.15 0.15 68 1010.3
20260508194548 6 274 6.4 11.3 0.03 0.15 0.15 68 1010.4
20260508194039 6 305 6.4 16.1 0.03 0.15 0.15 67 1010.3
20260508193539 7 360 8.0 16.1 0.03 0.15 0.15 69 1010.4
20260508193040 7 262 4.8 8.0 0.03 0.15 0.15 70 1010.4
20260508192539 6 274 3.2 6.4 0.03 0.15 0.15 71 1010.6
20260508192038 6 223 1.6 12.9 0.03 0.15 0.15 68 1010.7
20260508191546 7 283 3.2 12.9 0.00 0.13 0.13 67 1010.7
20260508191038 7 241 3.2 8.0 0.00 0.13 0.13 65 1010.7
20260508190540 7 98 3.2 8.0 0.00 0.13 0.13 66 1010.7
20260508190055 7 238 3.2 14.5 0.00 0.13 0.13 67 1010.5
20260508185536 7 204 1.6 11.3 0.00 0.13 0.13 71 1010.6
20260508185035 7 212 3.2 11.3 0.00 0.13 0.13 71 1010.7
20260508184538 7 346 1.6 14.5 0.00 0.13 0.13 70 1010.6
20260508184033 6 297 4.8 14.5 0.00 0.13 0.13 70 1010.7
20260508183532 6 284 3.2 12.9 0.00 0.13 0.13 74 1010.7
20260508183035 6 298 6.4 12.9 0.00 0.13 0.13 73 1010.7
20260508182530 6 310 3.2 9.7 0.00 0.13 0.13 73 1010.8
20260508182034 6 242 3.2 9.7 0.00 0.13 0.13 74 1010.8
20260508181541 6 200 3.2 6.4 0.00 0.13 0.13 75 1010.9
20260508181030 6 254 1.6 6.4 0.00 0.13 0.13 74 1010.9
20260508180528 6 295 1.6 8.0 0.00 0.13 0.13 77 1010.9
20260508180029 5 235 0.0 9.7 0.00 0.13 0.13 76 1011.0
20260508175528 5 227 1.6 11.3 0.00 0.13 0.13 75 1010.8
20260508175030 6 237 4.8 11.3 0.00 0.13 0.13 74 1010.9
20260508174531 6 360 3.2 9.7 0.00 0.13 0.13 75 1010.8
20260508174030 6 261 3.2 11.3 0.00 0.13 0.13 76 1010.8
20260508173529 6 215 4.8 11.3 0.00 0.13 0.13 78 1010.9
20260508173028 5 186 1.6 9.7 0.00 0.13 0.13 81 1010.9
20260508172530 5 221 3.2 6.4 0.00 0.13 0.13 79 1010.9
20260508172027 5 240 0.0 6.4 0.00 0.13 0.13 80 1011.0
20260508171530 5 234 0.0 8.0 0.00 0.13 0.13 81 1011.1
20260508171026 5 248 1.6 9.7 0.00 0.13 0.13 81 1011.2
20260508170526 5 309 4.8 9.7 0.00 0.13 0.13 81 1011.2
20260508170027 5 207 3.2 9.7 0.03 0.13 0.13 81 1011.3
20260508165526 5 250 1.6 9.7 0.03 0.13 0.13 82 1011.3
20260508165026 5 290 3.2 11.3 0.03 0.13 0.13 83 1011.3
20260508164527 5 253 1.6 8.0 0.03 0.13 0.13 84 1011.3
20260508164026 5 227 3.2 9.7 0.03 0.13 0.13 84 1011.4
20260508163525 4 248 3.2 12.9 0.03 0.13 0.13 85 1011.4
20260508163026 4 288 8.0 12.9 0.03 0.13 0.13 83 1011.5
20260508162529 3 244 3.2 9.7 0.03 0.13 0.13 84 1011.4
20260508162024 3 239 3.2 12.9 0.03 0.13 0.13 84 1011.5
20260508161540 3 214 3.2 12.9 0.03 0.13 0.13 82 1011.5
20260508161024 3 250 4.8 12.9 0.03 0.13 0.13 82 1011.5
20260508160525 3 193 4.8 12.9 0.00 0.10 0.10 80 1011.5
20260508160023 3 257 3.2 12.9 0.00 0.10 0.10 80 1011.6
20260508155523 3 261 6.4 12.9 0.00 0.10 0.10 81 1011.5
20260508155023 4 322 1.6 14.5 0.00 0.10 0.10 82 1011.5
20260508154525 4 234 3.2 14.5 0.00 0.10 0.10 81 1011.3
20260508154024 4 308 1.6 14.5 0.00 0.10 0.10 82 1011.4
20260508153523 4 197 1.6 14.5 0.00 0.10 0.10 83 1011.3
20260508153040 4 73 1.6 14.5 0.00 0.10 0.10 83 1011.2
20260508152521 3 208 4.8 14.5 0.00 0.10 0.10 84 1011.1
20260508152020 3 360 3.2 12.9 0.00 0.10 0.10 83 1011.2
20260508151520 3 360 3.2 12.9 0.00 0.10 0.10 82 1011.1
20260508151023 3 360 4.8 16.1 0.03 0.10 0.10 81 1011.1
20260508150520 3 360 3.2 16.1 0.03 0.10 0.10 78 1011.1
20260508150019 4 360 3.2 20.9 0.03 0.10 0.10 76 1011.2
20260508145519 5 360 6.4 20.9 0.03 0.10 0.10 73 1011.2
20260508145019 5 360 6.4 19.3 0.03 0.10 0.10 71 1011.1
20260508144518 5 292 3.2 12.9 0.03 0.10 0.10 73 1011.0
20260508144018 5 286 4.8 12.9 0.03 0.10 0.10 69 1011.0
20260508143518 5 225 3.2 12.9 0.03 0.10 0.10 70 1011.0
20260508143016 5 313 3.2 16.1 0.03 0.10 0.10 69 1010.8
20260508142515 5 302 9.7 16.1 0.03 0.10 0.10 69 1010.7
20260508142016 5 297 9.7 16.1 0.03 0.10 0.10 69 1010.7
20260508141516 5 305 8.0 16.1 0.03 0.10 0.10 68 1010.6
20260508141015 5 263 3.2 9.7 0.00 0.08 0.08 68 1010.6
20260508140515 5 303 3.2 9.7 0.00 0.08 0.08 69 1010.6
20260508140015 5 322 3.2 9.7 0.00 0.08 0.08 67 1010.6
20260508135516 5 305 4.8 9.7 0.00 0.08 0.08 68 1010.6
20260508135015 5 313 1.6 9.7 0.00 0.08 0.08 69 1010.7
20260508134519 5 315 3.2 19.3 0.00 0.08 0.08 69 1010.6
20260508134015 6 313 12.9 19.3 0.00 0.08 0.08 68 1010.5
20260508133515 6 249 4.8 14.5 0.00 0.08 0.08 68 1010.4
20260508133013 6 281 0.0 6.4 0.00 0.08 0.08 70 1010.3
20260508132511 6 218 0.0 12.9 0.00 0.08 0.08 68 1010.0
20260508132010 6 310 6.4 16.1 0.00 0.08 0.08 68 1010.3
20260508131511 6 286 8.0 12.9 0.00 0.08 0.08 67 1010.3
20260508131015 6 303 6.4 12.9 0.00 0.08 0.08 70 1010.4
20260508130506 5 266 3.2 16.1 0.00 0.08 0.08 73 1010.5
20260508130006 5 331 9.7 16.1 0.00 0.08 0.08 71 1010.4
20260508125504 5 304 9.7 16.1 0.00 0.08 0.08 72 1010.5
20260508125003 5 325 8.0 17.7 0.00 0.08 0.08 72 1010.5
20260508124504 5 290 9.7 17.7 0.00 0.08 0.08 75 1010.4
20260508124000 5 302 3.2 14.5 0.00 0.08 0.08 77 1010.3
20260508123600 5 313 3.2 12.9 0.00 0.08 0.08 77 1010.2
20260508123100 5 283 4.8 12.9 0.00 0.08 0.08 78 1010.2
20260508122602 4 309 0.0 9.7 0.00 0.08 0.08 79 1010.4
20260508122059 5 309 3.2 12.9 0.00 0.08 0.08 79 1010.5
20260508121600 5 324 1.6 9.7 0.00 0.08 0.08 80 1010.6
20260508121058 5 202 1.6 8.0 0.00 0.08 0.08 79 1010.6
20260508120556 4 78 1.6 6.4 0.00 0.08 0.08 79 1010.7
20260508120111 4 244 0.0 6.4 0.00 0.08 0.08 81 1010.6
20260508115558 4 242 1.6 6.4 0.00 0.08 0.08 81 1010.6
20260508115054 4 231 1.6 8.0 0.00 0.08 0.08 82 1010.7
20260508114559 3 230 3.2 8.0 0.00 0.08 0.08 82 1010.6
20260508114049 3 251 0.0 4.8 0.00 0.08 0.08 84 1010.7
20260508113548 3 221 0.0 4.8 0.00 0.08 0.08 85 1010.6
20260508113046 3 225 0.0 4.8 0.00 0.08 0.08 85 1010.5
20260508112546 3 223 1.6 6.4 0.00 0.08 0.08 86 1010.3
20260508112042 2 222 0.0 9.7 0.00 0.08 0.08 86 1010.3
20260508111543 2 196 3.2 9.7 0.00 0.08 0.08 87 1010.6
20260508111040 2 200 3.2 6.4 0.00 0.08 0.08 87 1010.8
20260508110538 2 196 1.6 6.4 0.00 0.08 0.08 88 1010.8
20260508110037 2 214 0.0 6.4 0.00 0.08 0.08 89 1010.6
20260508105535 2 232 0.0 6.4 0.00 0.08 0.08 89 1010.5
20260508105035 2 227 0.0 6.4 0.00 0.08 0.08 89 1010.5
20260508104532 2 222 1.6 4.8 0.00 0.08 0.08 90 1010.5
20260508104031 1 229 0.0 3.2 0.00 0.08 0.08 90 1010.3
20260508103530 1 224 0.0 4.8 0.00 0.08 0.08 90 1010.3
20260508103041 1 281 0.0 4.8 0.00 0.08 0.08 90 1010.2
20260508102531 1 205 0.0 3.2 0.00 0.08 0.08 90 1010.1
20260508102033 1 205 0.0 3.2 0.00 0.08 0.08 90 1010.0
20260508101528 1 204 0.0 0.0 0.03 0.08 0.08 90 1009.9
20260508101030 1 204 0.0 0.0 0.03 0.08 0.08 89 1009.8
20260508100527 1 203 0.0 0.0 0.03 0.08 0.08 89 1009.7
20260508100032 1 203 0.0 0.0 0.03 0.08 0.08 89 1009.6
20260508095530 1 203 0.0 0.0 0.03 0.08 0.08 89 1009.7
20260508095026 1 203 0.0 3.2 0.03 0.08 0.08 89 1009.7
20260508094525 1 203 0.0 4.8 0.03 0.08 0.08 89 1009.7
20260508094025 1 203 1.6 4.8 0.05 0.08 0.08 89 1009.8
20260508093526 1 188 1.6 8.0 0.05 0.08 0.08 89 1009.8
20260508093034 1 217 1.6 9.7 0.05 0.08 0.08 89 1009.9
20260508092526 1 222 3.2 9.7 0.05 0.08 0.08 89 1010.0
20260508092025 1 196 1.6 4.8 0.05 0.08 0.08 88 1010.0
20260508091526 1 191 0.0 3.2 0.05 0.05 0.05 88 1010.1
20260508091024 1 188 0.0 3.2 0.05 0.05 0.05 88 1010.0
20260508090524 1 188 0.0 4.8 0.05 0.05 0.05 88 1009.9
20260508090026 1 223 0.0 6.4 0.05 0.05 0.05 87 1010.0
20260508085522 1 291 1.6 6.4 0.05 0.05 0.05 87 1010.0
20260508085022 1 342 3.2 14.5 0.05 0.05 0.05 86 1010.0
20260508084521 1 321 6.4 16.1 0.03 0.03 0.03 86 1010.1
20260508084019 1 307 9.7 16.1 0.03 0.03 0.03 85 1010.1
20260508083519 1 314 4.8 12.9 0.03 0.03 0.03 85 1010.0
20260508083018 2 308 6.4 17.7 0.03 0.03 0.03 83 1010.1
20260508082518 2 313 12.9 17.7 0.03 0.03 0.03 82 1010.0
20260508082017 2 317 9.7 17.7 0.03 0.03 0.03 80 1009.9
20260508081515 3 281 8.0 20.9 0.00 0.00 0.00 78 1009.9
20260508081014 3 294 8.0 27.4 0.00 0.00 0.00 76 1009.7
20260508080513 3 269 14.5 27.4 0.00 0.00 0.00 74 1009.7
20260508080012 3 310 4.8 12.9 0.00 0.00 0.00 71 1009.6
20260508075511 3 287 1.6 6.4 0.00 0.00 0.00 69 1009.5
20260508075009 3 270 0.0 6.4 0.00 0.00 0.00 68 1009.5
20260508074509 3 272 0.0 4.8 0.00 0.00 0.00 67 1009.4
20260508074009 3 254 1.6 4.8 0.00 0.00 0.00 67 1009.4
20260508073509 3 154 0.0 3.2 0.00 0.00 0.00 66 1009.4
20260508073008 3 154 0.0 4.8 0.00 0.00 0.00 66 1009.2
20260508072507 3 153 0.0 4.8 0.00 0.00 0.00 65 1009.3
20260508072009 3 151 1.6 4.8 0.00 0.00 0.00 64 1009.3
20260508071508 3 144 0.0 4.8 0.00 0.00 0.00 64 1009.2
20260508071005 3 123 0.0 4.8 0.00 0.00 0.00 63 1009.2
20260508070509 3 229 0.0 4.8 0.00 0.00 0.00 63 1009.1
20260508070005 3 230 0.0 4.8 0.00 0.00 0.00 64 1009.2
20260508065506 2 238 0.0 1.6 0.00 0.00 0.00 63 1009.1
20260508065006 2 238 0.0 0.0 0.00 0.00 0.00 63 1009.0
20260508064505 2 238 0.0 0.0 0.00 0.00 0.00 63 1008.8
20260508064007 3 238 0.0 0.0 0.00 0.00 0.00 63 1008.8
20260508063504 3 238 0.0 0.0 0.00 0.00 0.00 63 1008.8
20260508063003 3 238 0.0 0.0 0.00 0.00 0.00 62 1008.8
20260508062502 3 238 0.0 0.0 0.00 0.00 0.00 62 1008.8
20260508062002 3 238 0.0 1.6 0.00 0.00 0.00 62 1008.8
20260508061501 3 238 0.0 1.6 0.00 0.00 0.00 62 1008.8
20260508061001 3 238 0.0 1.6 0.00 0.00 0.00 62 1008.9
20260508060601 3 238 0.0 1.6 0.00 0.00 0.00 61 1009.0
20260508060130 3 238 0.0 3.2 0.00 0.00 0.00 61 1009.0